weather.gov     
National Weather Service

Terminal Aerodrome Forecast
NWS Homepage
This page is being discontinued on March 12, 2014.
The same data is available at this site. Please update your bookmarks.
Thank you, and we apologize for the inconvenience.
Please send an email to SR-SRH.Webmaster@noaa.gov with any concerns.


Current Version
Previous Version:    01  02  03  04  05  06  07  08  09  10  11  12  13  14  15  16  17  18  19  20  21  22  23  24  25  26  27  28  29  
[Printable]
577
FTUS43 KMPX 231700
TAFRNH
TAF
KRNH 231730Z 2318/2418 14014G20KT P6SM -RA SCT050 BKN080
      TEMPO 2320/2322 4SM -RA BR BKN040
     FM240000 13015G22KT 5SM -RA BR BKN030
     FM240900 11012G21KT 4SM -RA BR BKN008 OVC015
     FM241500 14011KT 5SM -RA OVC010=


U.S. Dept. of Commerce
NOAA National Weather Service
1325 East West Highway
Silver Spring, MD 20910
E-mail: w-nws.webmaster@noaa.gov
Page last modified: May 16, 2007
NATIONAL WEATHER SERVICE: for Safety, for Work, for Fun - FOR LIFE